Погода в Богучанах

Россия / Красноярский край     58°22′47″N   97°26′42″E
темп.,
°C
ветер,
м/с
пор.,
м/с
влажн.,
%
обл.,
%
осадки,
мм/ч
давл.,
гПа
погр.,
м
16 июня, ср
ср1601:00+6зюз11885 0.0 101411
04:00+5юз11923 0.0 101513
07:00+12з12602 0.0 1015293
10:00+19з22404 0.0 10141177
13:00+22юз223398 0.0 10132088
16:00+22зюз223087 0.0 10122289
19:00+21юз11435 0.0 101280
22:00+13ю216071 0.0 101311
17 июня, чт
чт1701:00+11ююз22705 0.0 101516
04:00+10ю117259 0.0 101410
07:00+16ю13515 0.0 1014301
10:00+21ююз34387 0.0 10121557
13:00+24ю34275 0.0 10112487
16:00+25ююз33245 0.0 10092806
19:00+21юз2245100 0.0 100847
22:00+15юв006648 0.0 100811
18 июня, пт
пт1801:00+15юв116516 0.0 100811
04:00+12юв117629 0.0 100810
07:00+18ююв245283 0.0 1007338
10:00+23ю354750 0.0 10061294
13:00+18ююз4770100 0.0 1006403
16:00+21ююз465899 0.0 1005724
19:00+18юз368199 0.4 1005317
22:00+14ююз119597 0.3 100410
19 июня, сб
сб1901:00+15вюв1197100 1.3 100429
04:00+13вюв1197100 0.7 100414
07:00+16ю0192100 0.9 1004223
10:00+21зюз0064100 0.1 1003892
13:00+19ююв1181100 1.7 1002196
16:00+17ю118888 2.0 100256
19:00+19ю017549 2.9 1002210
22:00+14ссв11895 0.6 100210
20 июня, вс
вс2001:00+12вюв119412 0.6 100211
04:00+12юз0096100 0.1 100311
07:00+16ссв128837 0.1 1003245
10:00+22с11547 0.0 10031170
13:00+25всв1341100 0.7 10022064
16:00+22всв3553100 0.0 1003359
19:00+21зюз12625 0.0 1004141
22:00+15всв11810 0.0 100411